GSAT-8 (GAGAN/PRN 127)

Last updated on Oct. 29, 2020, 5:53 a.m. UTC

1 37605U 11022A   20302.57939385  .00000081  00000-0  00000-0 0  9992
2 37605   0.0102 213.3009 0007380  37.0877  50.6701  1.00273707 32588
UTC
Height (km)
Latitude
Longitude
Inclination
Orbital Period
UTC large
Height (km)
Speed (km/s)
/
Latitude / Longitude
Inclination (degrees)
Orbital Period (minutes)
Azimuth
Elevation
Range (km)
Doppler Factor
iOS Compass Heading
iOS Angle

Next 30 passes for location: Hong Kong

Rise time Rise Azimuth (degrees) Set time Set Azimuth (degrees) Duration Max altitude (degrees)

No matching passes for this satellites